W5HRH Weather Reports


time (UTC)temp
C
wind
direction
speed
KPH
gust
KPH
rain 1hr
cm
rain 24hr
cm
rain mn
cm
humidity
%
barometer
mb
20260901112550 27 333 0.0 4.8 0.00 0.00 0.00 88 1016.7
20260901112050 27 5 1.6 4.8 0.00 0.00 0.00 88 1016.7
20260901111551 27 11 0.0 3.2 0.00 0.00 0.00 88 1016.7
20260901111052 27 10 0.0 4.8 0.00 0.00 0.00 88 1016.7
20260901110550 27 10 0.0 4.8 0.00 0.00 0.00 88 1016.7
20260901110050 27 26 0.0 4.8 0.00 0.00 0.00 88 1016.6
20260901105549 26 65 0.0 3.2 0.00 0.00 0.00 88 1016.6
20260901105049 26 65 0.0 4.8 0.00 0.00 0.00 88 1016.6
20260901104558 26 65 0.0 4.8 0.00 0.00 0.00 88 1016.5
20260901104049 26 142 0.0 1.6 0.00 0.00 0.00 88 1016.4
20260901103548 26 142 0.0 1.6 0.00 0.00 0.00 88 1016.4
20260901103048 26 142 0.0 1.6 0.00 0.00 0.00 88 1016.5
20260901102548 26 142 0.0 1.6 0.00 0.00 0.00 88 1016.5
20260901102048 26 142 0.0 1.6 0.00 0.00 0.00 88 1016.4
20260901101548 26 142 0.0 0.0 0.00 0.00 0.00 88 1016.5
20260901101047 26 142 0.0 0.0 0.00 0.00 0.00 88 1016.5
20260901100551 26 142 0.0 0.0 0.00 0.00 0.00 88 1016.6
20260901095549 26 142 0.0 0.0 0.00 0.00 0.00 88 1016.5
20260901095045 26 142 0.0 0.0 0.00 0.00 0.00 88 1016.6
20260901094546 26 142 0.0 0.0 0.00 0.00 0.00 88 1016.6
20260901094045 26 142 0.0 0.0 0.00 0.00 0.00 88 1016.6
20260901093544 26 142 0.0 0.0 0.00 0.00 0.00 88 1016.7
20260901093054 26 142 0.0 0.0 0.00 0.00 0.00 87 1016.6
20260901092544 26 142 0.0 0.0 0.00 0.00 0.00 88 1016.5
20260901092043 26 142 0.0 0.0 0.00 0.00 0.00 87 1016.7
20260901091542 26 142 0.0 0.0 0.00 0.00 0.00 87 1016.7
20260901091042 26 142 0.0 0.0 0.00 0.00 0.00 87 1016.7
20260901090541 26 142 0.0 0.0 0.00 0.00 0.00 87 1016.7
20260901090042 26 142 0.0 0.0 0.00 0.00 0.00 86 1016.8
20260901085541 27 142 0.0 3.2 0.00 0.00 0.00 87 1016.7
20260901085041 27 142 0.0 3.2 0.00 0.00 0.00 87 1016.7
20260901084540 27 142 0.0 0.0 0.00 0.00 0.00 86 1016.7
20260901084040 27 142 0.0 0.0 0.00 0.00 0.00 86 1016.7
20260901083540 27 142 0.0 0.0 0.00 0.00 0.00 86 1016.6
20260901083040 27 142 0.0 0.0 0.00 0.00 0.00 86 1016.6
20260901082540 27 142 0.0 0.0 0.00 0.00 0.00 86 1016.6
20260901082043 27 142 0.0 1.6 0.00 0.00 0.00 86 1016.7
20260901081538 27 142 0.0 1.6 0.00 0.00 0.00 86 1016.7
20260901081039 27 142 0.0 0.0 0.00 0.00 0.00 86 1016.8
20260901080537 27 142 0.0 0.0 0.00 0.00 0.00 86 1016.8
20260901080037 27 142 0.0 0.0 0.00 0.00 0.00 86 1016.9
20260901075537 27 142 0.0 0.0 0.00 0.00 0.00 86 1016.9
20260901075037 27 142 0.0 0.0 0.00 0.00 0.00 86 1017.0
20260901074536 27 142 0.0 0.0 0.00 0.00 0.00 86 1017.0
20260901074036 27 142 0.0 0.0 0.00 0.00 0.00 86 1016.9
20260901073536 27 142 0.0 0.0 0.00 0.00 0.00 85 1016.9
20260901073040 27 142 0.0 0.0 0.00 0.00 0.00 85 1016.9
20260901072537 27 142 0.0 0.0 0.00 0.00 0.00 85 1016.9
20260901072036 27 142 0.0 0.0 0.00 0.00 0.00 85 1016.8
20260901071534 27 142 0.0 0.0 0.00 0.00 0.00 85 1016.9
20260901071033 27 142 0.0 0.0 0.00 0.00 0.00 85 1017.0
20260901070533 27 142 0.0 0.0 0.00 0.00 0.00 85 1017.0
20260901070034 27 142 0.0 0.0 0.00 0.00 0.00 85 1016.9
20260901065533 27 142 0.0 0.0 0.00 0.00 0.00 84 1017.1
20260901065032 27 142 0.0 0.0 0.00 0.00 0.00 84 1017.1
20260901064536 27 142 0.0 0.0 0.00 0.00 0.00 84 1017.0
20260901064035 27 142 0.0 0.0 0.00 0.00 0.00 84 1017.0
20260901063531 27 142 0.0 0.0 0.00 0.00 0.00 84 1017.0
20260901063036 27 142 0.0 0.0 0.00 0.00 0.00 84 1017.1
20260901062532 27 142 0.0 0.0 0.00 0.00 0.00 84 1017.1
20260901062031 27 142 0.0 0.0 0.00 0.00 0.00 84 1017.1
20260901061529 27 142 0.0 0.0 0.00 0.00 0.00 83 1017.1
20260901061029 27 142 0.0 0.0 0.00 0.00 0.00 83 1017.1
20260901060530 27 142 0.0 0.0 0.00 0.00 0.00 83 1017.1
20260901060029 28 142 0.0 0.0 0.00 0.00 0.00 83 1017.2
20260901055528 28 142 0.0 0.0 0.00 0.00 0.00 83 1017.2
20260901055027 28 142 0.0 0.0 0.00 0.00 0.00 82 1017.2
20260901054528 28 142 0.0 0.0 0.00 0.00 0.00 81 1017.2
20260901054026 28 142 0.0 0.0 0.00 0.00 0.00 81 1017.1
20260901053524 28 142 0.0 0.0 0.00 0.00 0.00 81 1017.0
20260901053023 28 142 0.0 0.0 0.00 0.00 0.00 81 1017.0
20260901052527 28 142 0.0 0.0 0.00 0.00 0.00 81 1017.1
20260901052023 28 142 0.0 0.0 0.00 0.00 0.00 81 1017.0
20260901051522 28 142 0.0 0.0 0.00 0.00 0.00 81 1017.0
20260901051024 28 142 0.0 0.0 0.00 0.00 0.00 80 1017.0
20260901050521 28 142 0.0 0.0 0.00 0.00 0.00 81 1016.9
20260901050022 28 142 0.0 0.0 0.00 0.00 0.00 80 1016.9
20260901045522 28 142 0.0 0.0 0.00 0.00 0.00 80 1016.9
20260901045019 28 142 0.0 0.0 0.00 0.00 0.00 80 1016.7
20260901044519 28 142 0.0 0.0 0.00 0.00 0.00 80 1016.8
20260901044019 28 142 0.0 0.0 0.00 0.00 0.00 80 1016.8
20260901043518 28 142 0.0 0.0 0.00 0.00 0.00 80 1016.7
20260901043020 28 144 0.0 0.0 0.00 0.00 0.00 79 1016.8
20260901042520 28 138 0.0 1.6 0.00 0.00 0.00 79 1016.8
20260901042017 28 138 0.0 1.6 0.00 0.00 0.00 79 1016.8
20260901041516 29 136 0.0 0.0 0.00 0.00 0.00 79 1016.9
20260901041017 29 136 0.0 0.0 0.00 0.00 0.00 78 1016.9
20260901040517 29 136 0.0 1.6 0.00 0.00 0.00 78 1016.8
20260901040018 29 136 0.0 1.6 0.00 0.00 0.00 77 1016.8
20260901035517 29 136 0.0 1.6 0.00 0.00 0.00 77 1016.8
20260901035016 29 136 0.0 4.8 0.00 0.00 0.00 76 1016.9
20260901034516 29 136 0.0 4.8 0.00 0.00 0.00 76 1016.8
20260901034016 29 157 0.0 4.8 0.00 0.00 0.00 76 1016.8
20260901033516 29 153 0.0 4.8 0.00 0.00 0.00 76 1016.7
20260901033016 29 154 0.0 4.8 0.00 0.00 0.00 76 1016.7
20260901032518 29 170 0.0 3.2 0.00 0.00 0.00 76 1016.7
20260901032016 29 173 0.0 0.0 0.00 0.00 0.00 75 1016.5
20260901031514 29 175 0.0 0.0 0.00 0.00 0.00 75 1016.3
20260901031015 29 174 0.0 0.0 0.00 0.00 0.00 75 1016.4
20260901030515 29 174 0.0 0.0 0.00 0.00 0.00 75 1016.3
20260901030015 29 174 0.0 0.0 0.00 0.00 0.00 74 1016.3
20260901025518 30 174 0.0 0.0 0.00 0.00 0.00 75 1016.1
20260901025015 30 174 0.0 0.0 0.00 0.00 0.00 74 1016.0
20260901024526 30 174 0.0 0.0 0.00 0.00 0.00 74 1015.9
20260901024017 30 175 0.0 0.0 0.00 0.00 0.00 74 1015.9
20260901023518 30 174 0.0 1.6 0.00 0.00 0.00 74 1015.9
20260901023014 30 174 0.0 1.6 0.00 0.00 0.00 73 1015.9
20260901022515 30 174 0.0 1.6 0.00 0.00 0.00 73 1015.7
20260901022015 30 174 0.0 1.6 0.00 0.00 0.00 73 1015.7
20260901021516 30 175 0.0 3.2 0.00 0.00 0.00 73 1015.6
20260901021014 30 175 0.0 8.0 0.00 0.00 0.00 73 1015.5
20260901020513 30 175 0.0 8.0 0.00 0.00 0.00 72 1015.5
20260901020012 30 153 0.0 3.2 0.00 0.00 0.00 72 1015.4
20260901015513 30 153 0.0 3.2 0.00 0.00 0.00 72 1015.3
20260901015012 30 152 0.0 4.8 0.00 0.00 0.00 72 1015.3
20260901014512 30 150 0.0 8.0 0.00 0.00 0.00 71 1015.4
20260901014012 30 154 0.0 8.0 0.00 0.00 0.00 71 1015.4
20260901013513 30 143 1.6 4.8 0.00 0.00 0.00 71 1015.3
20260901013012 30 171 0.0 4.8 0.00 0.00 0.00 71 1015.2
20260901012516 31 172 0.0 6.4 0.00 0.00 0.00 70 1015.1
20260901012013 31 172 3.2 8.0 0.00 0.00 0.00 70 1015.2
20260901011512 31 142 4.8 8.0 0.00 0.00 0.00 70 1015.1
20260901011011 31 138 1.6 6.4 0.00 0.00 0.00 69 1015.2
20260901010511 31 121 1.6 6.4 0.00 0.00 0.00 69 1015.2
20260901010013 31 137 1.6 8.0 0.00 0.00 0.00 69 1015.1
20260901005510 31 166 3.2 11.3 0.00 0.00 0.00 68 1015.2
20260901005011 31 154 3.2 11.3 0.00 0.00 0.00 68 1015.1
20260901004528 31 151 3.2 11.3 0.00 0.00 0.00 68 1015.2
20260901004009 31 144 1.6 6.4 0.00 0.00 0.00 68 1015.3
20260901003511 31 132 1.6 6.4 0.00 0.00 0.00 68 1015.3
20260901003009 31 138 1.6 6.4 0.00 0.00 0.00 68 1015.3
20260901002509 31 165 1.6 9.7 0.00 0.00 0.00 68 1015.3
20260901002008 31 175 3.2 9.7 0.00 0.00 0.00 67 1015.2
20260901001519 32 79 1.6 9.7 0.00 0.00 0.00 67 1015.3
20260901001009 32 163 1.6 11.3 0.00 0.00 0.00 67 1015.3
20260901000511 32 154 3.2 11.3 0.00 0.00 0.00 68 1015.3
20260901000013 32 159 3.2 9.7 0.00 0.00 0.00 68 1015.3
20260831235506 32 180 1.6 6.4 0.00 0.00 0.00 68 1015.3
20260831235008 32 173 1.6 6.4 0.00 0.00 0.00 67 1015.4
20260831234508 32 153 3.2 11.3 0.00 0.00 0.00 67 1015.3
20260831234007 32 128 3.2 9.7 0.00 0.00 0.00 67 1015.4
20260831233507 32 175 3.2 11.3 0.00 0.00 0.00 67 1015.5
20260831233006 32 126 4.8 11.3 0.00 0.00 0.00 66 1015.6
20260831232506 32 122 3.2 12.9 0.00 0.00 0.00 66 1015.3
20260831232006 32 133 3.2 9.7 0.00 0.00 0.00 66 1015.3
20260831231506 32 82 1.6 8.0 0.00 0.00 0.00 65 1015.4
20260831231006 32 157 4.8 9.7 0.00 0.00 0.00 65 1015.4
20260831230506 32 136 0.0 8.0 0.00 0.00 0.00 65 1015.4
20260831230005 32 146 1.6 11.3 0.00 0.00 0.00 65 1015.3
20260831225504 32 171 1.6 11.3 0.00 0.00 0.00 66 1015.4
20260831225004 32 157 3.2 11.3 0.00 0.00 0.00 66 1015.5
20260831224505 32 164 3.2 11.3 0.00 0.00 0.00 65 1015.5
20260831224005 32 163 3.2 11.3 0.00 0.00 0.00 66 1015.5
20260831223505 32 98 3.2 12.9 0.00 0.00 0.00 65 1015.5
20260831223005 32 160 3.2 12.9 0.00 0.00 0.00 65 1015.5
20260831222506 32 178 4.8 11.3 0.00 0.00 0.00 65 1015.4
20260831222003 32 145 3.2 9.7 0.00 0.00 0.00 65 1015.4
20260831221503 32 159 1.6 11.3 0.00 0.00 0.00 65 1015.5
20260831221003 32 157 6.4 12.9 0.00 0.00 0.00 64 1015.4
20260831220502 32 167 6.4 12.9 0.00 0.00 0.00 64 1015.5
20260831220002 32 172 3.2 6.4 0.00 0.00 0.00 63 1015.5
20260831215502 32 171 4.8 9.7 0.00 0.00 0.00 62 1015.5
20260831215000 32 219 4.8 9.7 0.00 0.00 0.00 61 1015.7
20260831214500 32 165 1.6 8.0 0.00 0.00 0.00 61 1015.6
20260831214102 32 164 1.6 8.0 0.00 0.00 0.00 61 1015.7
20260831213600 32 142 3.2 11.3 0.00 0.00 0.00 60 1015.8
20260831213500 31 142 3.2 11.3 0.00 0.00 0.00 60 1015.7
20260831213059 31 125 3.2 11.3 0.00 0.00 0.00 60 1015.9
20260831212559 31 161 3.2 8.0 0.00 0.00 0.00 61 1015.8
20260831212059 31 127 1.6 8.0 0.00 0.00 0.00 61 1015.8
20260831211559 31 165 3.2 8.0 0.00 0.00 0.00 61 1015.9
20260831211057 31 157 3.2 8.0 0.00 0.00 0.00 62 1015.8
20260831210557 31 163 3.2 6.4 0.00 0.00 0.00 62 1016.0
20260831210058 31 171 3.2 11.3 0.00 0.00 0.00 62 1016.0
20260831205556 31 156 3.2 11.3 0.00 0.00 0.00 62 1016.1
20260831205056 31 121 4.8 12.9 0.00 0.00 0.00 61 1016.2
20260831204602 31 158 3.2 14.5 0.00 0.00 0.00 62 1016.3
20260831204055 31 157 4.8 14.5 0.00 0.00 0.00 61 1016.3
20260831203554 32 160 3.2 14.5 0.00 0.00 0.00 62 1016.3
20260831203053 32 132 4.8 11.3 0.00 0.00 0.00 63 1016.3
20260831202552 32 176 4.8 9.7 0.00 0.00 0.00 63 1016.4
20260831202052 32 123 3.2 12.9 0.00 0.00 0.00 65 1016.5
20260831201552 32 162 3.2 11.3 0.00 0.00 0.00 66 1016.6
20260831201050 32 130 4.8 11.3 0.00 0.00 0.00 66 1016.6
20260831200550 32 138 3.2 16.1 0.00 0.00 0.00 67 1016.6
20260831200050 32 164 6.4 17.7 0.00 0.00 0.00 68 1016.7
20260831195549 32 141 4.8 17.7 0.00 0.00 0.00 68 1016.7
20260831195047 32 150 9.7 17.7 0.00 0.00 0.00 68 1016.8
20260831194548 32 190 6.4 17.7 0.00 0.00 0.00 68 1016.6
20260831194046 32 163 4.8 17.7 0.00 0.00 0.00 67 1016.8
20260831193549 33 115 8.0 24.1 0.00 0.00 0.00 64 1016.8
20260831193045 33 155 4.8 12.9 0.00 0.00 0.00 58 1016.8
20260831192545 33 101 0.0 0.0 0.00 0.00 0.00 59 1016.9
20260831192043 34 89 0.0 0.0 0.00 0.00 0.00 59 1016.9
20260831191544 34 155 0.0 0.0 0.00 0.00 0.00 60 1016.9
20260831191045 34 169 0.0 0.0 0.00 0.00 0.00 59 1016.9
20260831190543 34 94 0.0 0.0 0.00 0.00 0.00 59 1017.1
20260831190101 34 88 0.0 0.0 0.00 0.00 0.00 59 1017.2
20260831185541 34 69 0.0 0.0 0.00 0.00 0.00 59 1016.9
20260831185045 34 105 0.0 0.0 0.00 0.00 0.00 60 1017.1
20260831184543 34 153 0.0 0.0 0.00 0.00 0.00 60 1017.3
20260831184040 33 32 0.0 0.0 0.00 0.00 0.00 61 1017.4
20260831183540 33 30 0.0 0.0 0.00 0.00 0.00 61 1017.5
20260831183051 33 31 0.0 0.0 0.00 0.00 0.00 61 1017.4
20260831182539 33 119 0.0 0.0 0.00 0.00 0.00 61 1017.4
20260831182038 33 102 0.0 0.0 0.00 0.00 0.00 62 1017.5
20260831181538 33 69 0.0 0.0 0.00 0.00 0.00 62 1017.5
20260831181039 33 89 0.0 0.0 0.00 0.00 0.00 62 1017.6
20260831180538 33 142 0.0 0.0 0.00 0.00 0.00 62 1017.7
20260831180037 33 128 0.0 0.0 0.00 0.00 0.00 62 1017.7
20260831175537 33 98 0.0 0.0 0.00 0.00 0.00 63 1017.8
20260831175037 33 108 0.0 0.0 0.00 0.00 0.00 63 1017.8
20260831174537 33 186 0.0 0.0 0.00 0.00 0.00 63 1017.9
20260831174038 33 146 0.0 0.0 0.00 0.00 0.00 63 1018.0
20260831173540 33 147 0.0 0.0 0.00 0.00 0.00 63 1018.1
20260831173039 33 126 0.0 0.0 0.00 0.00 0.00 64 1018.1
20260831172534 33 154 0.0 0.0 0.00 0.00 0.00 63 1018.2
20260831172033 33 155 0.0 0.0 0.00 0.00 0.00 63 1018.2
20260831171534 33 129 0.0 0.0 0.00 0.00 0.00 64 1018.1
20260831171030 33 47 0.0 0.0 0.00 0.00 0.00 64 1018.1
20260831170530 33 11 0.0 0.0 0.00 0.00 0.00 65 1018.3
20260831170029 33 55 0.0 0.0 0.00 0.00 0.00 64 1018.2
20260831165527 32 87 0.0 0.0 0.00 0.00 0.00 65 1018.4
20260831165026 32 59 0.0 0.0 0.00 0.00 0.00 66 1018.3
20260831164529 32 144 0.0 0.0 0.00 0.00 0.00 67 1018.3
20260831164026 32 347 0.0 0.0 0.00 0.00 0.00 68 1018.3
20260831163522 32 15 0.0 0.0 0.00 0.00 0.00 67 1018.4
20260831163037 32 355 0.0 0.0 0.00 0.00 0.00 67 1018.5
20260831162520 32 117 0.0 0.0 0.00 0.00 0.00 67 1018.2
20260831162018 32 119 0.0 0.0 0.00 0.00 0.00 67 1018.4
20260831161516 32 105 0.0 0.0 0.00 0.00 0.00 67 1018.5
20260831161014 32 73 0.0 0.0 0.00 0.00 0.00 68 1018.6
20260831160514 32 190 0.0 0.0 0.00 0.00 0.00 67 1018.6
20260831160021 32 125 0.0 0.0 0.00 0.00 0.00 68 1018.6
20260831155512 32 120 0.0 0.0 0.00 0.00 0.00 68 1018.6
20260831155011 31 147 0.0 0.0 0.00 0.00 0.00 70 1018.6
20260831154511 31 355 0.0 0.0 0.00 0.00 0.00 70 1018.6
20260831154012 31 38 0.0 0.0 0.00 0.00 0.00 70 1018.6
20260831153508 31 71 0.0 0.0 0.00 0.00 0.00 70 1018.6
20260831153008 31 38 0.0 0.0 0.00 0.00 0.00 70 1018.5
20260831152510 31 63 0.0 0.0 0.00 0.00 0.00 71 1018.5
20260831152008 31 168 0.0 0.0 0.00 0.00 0.00 72 1018.6
20260831151607 31 94 0.0 0.0 0.00 0.00 0.00 71 1018.6
20260831151005 31 106 0.0 0.0 0.00 0.00 0.00 71 1018.5
20260831150506 30 37 0.0 0.0 0.00 0.00 0.00 74 1018.5
20260831150004 30 92 0.0 0.0 0.00 0.00 0.00 75 1018.4
20260831145502 30 336 0.0 0.0 0.00 0.00 0.00 76 1018.4
20260831145003 30 348 0.0 0.0 0.00 0.00 0.00 76 1018.4
20260831144505 30 32 0.0 0.0 0.00 0.00 0.00 77 1018.5
20260831144100 30 36 0.0 0.0 0.00 0.00 0.00 78 1018.4
20260831143600 30 38 0.0 0.0 0.00 0.00 0.00 79 1018.2
20260831143108 30 37 0.0 0.0 0.00 0.00 0.00 79 1018.2
20260831142559 30 35 0.0 0.0 0.00 0.00 0.00 80 1018.2
20260831142057 29 175 0.0 0.0 0.00 0.00 0.00 81 1018.2
20260831141554 29 175 0.0 0.0 0.00 0.00 0.00 81 1018.2
20260831141054 29 176 0.0 0.0 0.00 0.00 0.00 83 1018.2
20260831140553 28 171 0.0 0.0 0.00 0.00 0.00 83 1018.2
20260831140052 28 169 0.0 0.0 0.00 0.00 0.00 84 1018.1
20260831135551 28 168 0.0 0.0 0.00 0.00 0.00 84 1018.0
20260831135050 28 168 0.0 0.0 0.00 0.00 0.00 85 1017.9
20260831134550 28 168 0.0 0.0 0.00 0.00 0.00 85 1018.1
20260831134048 28 168 0.0 0.0 0.00 0.00 0.00 86 1017.9
20260831133548 27 168 0.0 0.0 0.00 0.00 0.00 87 1018.1
20260831133052 27 168 0.0 0.0 0.00 0.00 0.00 88 1017.9
20260831132548 27 168 0.0 0.0 0.00 0.00 0.00 89 1017.8
20260831132050 27 168 0.0 0.0 0.00 0.00 0.00 90 1017.8
20260831131546 26 169 0.0 0.0 0.00 0.00 0.00 91 1017.8
20260831131045 26 169 0.0 0.0 0.00 0.00 0.00 91 1017.6
20260831130545 26 169 0.0 0.0 0.00 0.00 0.00 92 1017.5
20260831130049 26 169 0.0 0.0 0.00 0.00 0.00 92 1017.6
20260831125545 26 169 0.0 0.0 0.00 0.00 0.00 92 1017.5
20260831125047 25 169 0.0 0.0 0.00 0.00 0.00 92 1017.5
20260831124550 25 169 0.0 0.0 0.00 0.00 0.00 92 1017.5
20260831124044 25 169 0.0 0.0 0.00 0.00 0.00 92 1017.5
20260831123544 25 169 0.0 0.0 0.00 0.00 0.00 92 1017.5
20260831123044 25 169 0.0 0.0 0.00 0.00 0.00 92 1017.4
20260831122543 25 169 0.0 0.0 0.00 0.00 0.00 92 1017.3
20260831122044 25 169 0.0 0.0 0.00 0.00 0.00 91 1017.3
20260831121543 25 169 0.0 0.0 0.00 0.00 0.00 91 1017.2
20260831121043 25 169 0.0 0.0 0.00 0.00 0.00 91 1017.1
20260831120542 25 169 0.0 0.0 0.00 0.00 0.00 91 1017.0
20260831120052 25 169 0.0 0.0 0.00 0.00 0.00 91 1017.0
20260831115542 25 169 0.0 0.0 0.00 0.00 0.00 91 1016.9
20260831115042 25 169 0.0 0.0 0.00 0.00 0.00 91 1016.8
20260831114542 25 169 0.0 0.0 0.00 0.00 0.00 91 1016.8
20260831114045 25 169 0.0 0.0 0.00 0.00 0.00 91 1016.9
20260831113541 25 169 0.0 0.0 0.00 0.00 0.00 90 1016.8
20260831113050 25 169 0.0 0.0 0.00 0.00 0.00 90 1016.8